Regional Weather Roundup
Issued by NWS

Home | Current Version | Previous Version | Graphics & Text | Print | Product List | Glossary On
Versions: 1 2 3 4 5 6 7 8 9 10 11 12 13 14 15 16 17 18 19 20 21 22 23 24 25 26 27 28 29 30 31 32 33 34 35 36 37 38 39 40 41 42 43 44 45 46 47 48 49 50
000
ASUS43 KMKX 231020
RWRWI

WISCONSIN REGIONAL WEATHER ROUNDUP
NATIONAL WEATHER SERVICE MILWAUKEE/SULLIVAN WI
400 AM CST TUE JAN 23 2018

NOTE: "FAIR" INDICATES FEW OR NO CLOUDS BELOW 12,000 FEET WITH NO
SIGNIFICANT WEATHER AND/OR OBSTRUCTIONS TO VISIBILITY.

WIZ001-002-006>008-014>016-023>028-231100-
NORTHWEST WISCONSIN

CITY           SKY/WX    TMP DP  RH WIND       PRES   REMARKS
SUPERIOR ARPT  CLOUDY    15   9  76 N8        29.95R WCI   4
ASHLAND        CLOUDY    20  17  88 N12       29.88F WCI   8
HAYWARD        CLOUDY    20  16  84 N13G20    29.83S WCI   7
SIREN          CLOUDY    18  12  76 N9        29.89R WCI   7
CUMBERLAND     CLOUDY    19  14  79 N14       29.81R WCI   6
RICE LAKE      CLOUDY    21  18  88 NW12G17   29.82R WCI   9
CHETEK         CLOUDY    22  19  91 N12G21    29.80R WCI  10
LADYSMITH      CLOUDY    21  18  88 N16G23    29.78R WCI   7
EAU CLAIRE     CLOUDY    23  19  85 N15G24    29.77R WCI  10
MENOMONIE      CLOUDY    24  20  83 NW17G24   29.80R WCI  11
NEW RICHMOND   FAIR      17  11  79 N13       29.85R WCI   3
OSCEOLA        FAIR      18  13  79 N9G20     29.91R WCI   7
$$

WIZ003>005-009-010-017-018-231100-
NORTH CENTRAL WISCONSIN

CITY           SKY/WX    TMP DP  RH WIND       PRES   REMARKS
MANITOWISH WTR LGT SNOW  18  17  95 N10G21    29.73R WCI   6
ARBOR VITAE    CLOUDY    22  19  88 N22G35    29.69R FOG     WCI   6
WOODRUFF       CLOUDY    22  19  88 N22G35    29.69R FOG     WCI   6
RHINELANDER    LGT SNOW  20  17  88 N15G22    29.66R FOG     WCI   6
EAGLE RIVER    LGT SNOW  19  18  95 N16G24    29.67R WCI   5
LAND O LAKES   CLOUDY    20  18  93 N15G23    29.70R FOG     WCI   6
PHILLIPS       CLOUDY    18  17  95 N13G20    29.73R WCI   5
TOMAHAWK       LGT SNOW  20  17  86 N13G21    29.69R WCI   7
MEDFORD        LGT SNOW  20  16  84 N15G24    29.67R WCI   7
MERRILL        LGT SNOW  22  18  87 N14G20    29.67R WCI   9
$$

WIZ029-030-035-036-043>047-231100-
CENTRAL WISCONSIN

CITY           SKY/WX    TMP DP  RH WIND       PRES   REMARKS
WAUSAU         LGT SNOW  22  18  85 N14G22    29.64R FOG     WCI   9
MOSINEE        LGT SNOW  23  21  93 N17       29.66R WCI   9
MARSHFIELD     LGT SNOW  22  19  89 N13G20    29.66R FOG     WCI  10
STEVENS POINT  CLOUDY    22  20  90 N14G22    29.65R WCI  10
WAUPACA        CLOUDY    29  24  80 NW14      29.62R WCI  19
WAUTOMA        CLOUDY    27  23  85 NW12      29.63  WCI  17
WISC RAPIDS    NOT AVBL
CAMP DOUGLAS   LGT SNOW  25  23  93 NW14G23   29.69R FOG     WCI  13
$$

WIZ011>013-019>022-031-037>040-048>050-231100-
NORTHEAST WISCONSIN

CITY           SKY/WX    TMP DP  RH WIND       PRES   REMARKS
ANTIGO         CLOUDY    20  17  88 N21       29.62R FOG     WCI   4
SHAWANO        CLOUDY    28  24  83 N9G16     29.62R WCI  20
OCONTO         CLOUDY    27  24  89 N8        29.59R WCI  18
STURGEON BAY   LGT SNOW  27  25  93 N20G31    29.57R FOG     WCI  13
GREEN BAY      CLOUDY    29  25  85 N15       29.59R FOG     WCI  18
MANITOWOC      MIX PCPN  27  25  92 N18G26    29.54S WCI  14
APPLETON       CLOUDY    28  27  93 N10       29.57R WCI  19
CLINTONVILLE   LGT SNOW  28  23  80 N8        29.62R WCI  20
OSHKOSH        CLOUDY    28  25  88 N16       29.58R WCI  16
$$

WIZ032>034-041-042-053>061-231100-
SOUTHWEST WISCONSIN

CITY           SKY/WX    TMP DP  RH WIND       PRES   REMARKS
LA CROSSE      LGT SNOW  27  22  81 N14       29.76R WCI  16
SPARTA         LGT SNOW  25  22  89 NW9G18    29.73R WCI  15
VIROQUA        CLOUDY    25  24  95 N20G25    29.69R WCI  11
BOSCOBEL       CLOUDY    31  32 100 N13       29.70R WCI  21
PRAIRIE DU CHI CLOUDY    30  24  79 NW15      29.72R WCI  19
PLATTEVILLE    CLOUDY    31  31 100 N20       29.65R WCI  19
$$

WIZ056-057-062-063-064-067-068-231100-
SOUTH CENTRAL WISCONSIN

CITY           SKY/WX    TMP DP  RH WIND       PRES   REMARKS
REEDSBURG      CLOUDY    27  23  84 NW15      29.66R WCI  15
BARABOO/DELLS  CLOUDY    27  24  85 NW10G17   29.64R WCI  18
LONE ROCK      CLOUDY    30  25  81 NW18G28   29.67R WCI  18
MINERAL POINT  CLOUDY    32  32 100 N16       29.63R WCI  21
MADISON        CLOUDY    30  26  85 N13G23    29.61R WCI  20
MIDDLETON      CLOUDY    32  28  84 NW16      29.61R WCI  21
WATERTOWN      CLOUDY    29  28  97 N8        29.57R WCI  21
MONROE         MIX PCPN  32  30  93 N10G18    29.60R WCI  24
JANESVILLE     MIX PCPN  32  32 100 NW12      29.58R WCI  23
$$

WIZ051-052-058>065-066-070>072-231100-
SOUTHEAST WISCONSIN

CITY           SKY/WX    TMP DP  RH WIND       PRES   REMARKS
MILWAUKEE      LGT SNOW  31  29  92 NW13G20   29.54R FOG     WCI  21
WAUKESHA       LGT SNOW  28  27  93 NW10      29.55R WCI  19
MILWAUKEE/TIMM LGT SNOW  30  28  93 N10       29.55R WCI  21
RACINE         LGT SNOW  31  29  92 N13G23    29.55R VSB 3/4 WCI  21
BURLINGTON     LGT SNOW  30  28  93 NW6       29.55R WCI  24
KENOSHA        SNOW      32  30  92 NW8       29.53R VSB 1/2 WCI  25
FOND DU LAC    CLOUDY    30  25  81 N16       29.58R WCI  19
SHEBOYGAN      LGT SNOW  28  27  96 N15G22    29.53R FOG     WCI  16
WEST BEND      CLOUDY    28  28 100 N12G18    29.54R WCI  18
JUNEAU         CLOUDY    28  27  93 NW8G17    29.57R WCI  20
$$

LSZ147-162-231100-
LAKE SUPERIOR

STATION/POSITION TIME  TEMP    WIND        PRES    WAVE
                       AIR SEA DIR/SP/G            HT/PER
                 (UTC) (F)     (DEG/KT/KT) (MB)    (FT/S)
DEVILS ISLAND    1000   19     360/ 16/ 19 1014.1R
SAXON HARBOR     0940   22      10/ 16/ 22 1011.5S
$$

LMZ867-665-643>646-231100-
LAKE MICHIGAN

STATION/POSITION TIME  TEMP    WIND        PRES    WAVE
                       AIR SEA DIR/SP/G            HT/PER
                 (UTC) (F)     (DEG/KT/KT) (MB)    (FT/S)
NORTHPORT PIER   0940   26     360/  7/ 10 1001.4S
KEWAUNEE LAKESHO 0954   27     360/ 10/ 17 1000.1R
SHEBOYGAN LAKESH 1000   28     350/ 21/ 22 1000.5R
PORT WASHINGTON  0940   29     330/  5/  9 1001.4S
MILWAUKEE LAKESH 1000   30     340/ 11/ 14   N/A
KENOSHA   LAKESH 1000   32     330/  7/ 13 1000.7
$$

TC  - TEMPERATURE IN CELSIUS
VSB - VISIBILITY IN STATUTE MILES
WCI - WIND CHILL INDEX
HX  - HEAT INDEX




USA.gov is the U.S. government's official web portal to all federal, state and local government web resources and services.